Theta_e
298 299 300 300 301 301 305 312 317 318 319 321 324 326 329 330 332 332 333 331 330 330 330 331 332 332 332 332 332 332 332 330 329 330 331 332 332 330 327 331 336 339 343 347 348 346 346 344 344 347 346 344 345 343 344 343 341 343 341 341 341 341 341 339 338 337 337 336 335 334 333 333 333 333 332 331 331 329 329 328 328 328 327 327 327
298 298 299 298 299 300 306 311 312 313 316 317 320 323 325 328 330 331 331 331 330 330 329 330 330 330 331 331 331 332 332 331 329 329 330 330 331 329 323 327 332 338 340 343 346 347 348 344 346 346 344 341 343 346 345 342 342 342 340 341 341 341 339 339 337 337 336 336 335 334 333 333 332 332 331 331 330 329 328 327 327 327 327 327 326
298 298 298 298 298 301 306 307 308 312 315 315 317 318 320 323 327 328 329 331 330 329 327 328 329 329 329 329 330 331 331 331 330 330 330 331 330 329 327 323 329 333 336 339 342 342 342 343 342 342 343 343 342 346 342 342 342 341 339 340 341 341 338 338 337 337 335 335 334 333 332 332 332 331 331 330 329 328 327 327 326 326 326 325 326
297 298 298 297 298 301 303 304 308 312 312 313 312 313 315 318 322 326 328 329 329 329 327 326 327 328 329 328 329 329 330 330 330 330 330 330 330 330 329 327 324 329 331 335 339 341 340 342 342 341 344 344 343 342 342 342 341 342 341 342 341 340 338 337 336 335 334 333 333 333 332 332 331 331 330 329 328 327 326 326 326 326 326 325 325
297 297 297 297 298 299 300 304 309 309 309 308 308 309 311 313 317 322 325 327 327 326 326 326 326 327 328 328 328 328 329 330 329 329 329 330 330 330 330 328 329 323 325 327 334 339 341 342 341 341 342 343 341 341 341 342 342 341 341 341 341 341 339 338 336 335 334 333 332 331 332 331 330 330 329 328 328 327 327 326 326 325 325 324 324
297 296 296 296 297 298 300 304 306 306 306 305 305 307 308 310 312 316 318 322 324 323 324 324 325 326 326 327 326 327 328 328 328 328 329 329 330 330 330 330 330 330 329 322 325 330 337 338 339 339 343 341 342 345 345 345 341 341 341 342 341 339 338 338 337 335 334 333 331 331 331 330 329 328 329 328 327 326 326 326 325 325 325 325 325
296 296 296 296 297 298 300 303 304 304 303 303 304 305 307 308 310 312 314 319 323 321 323 323 323 324 325 326 325 326 327 328 328 327 327 328 329 329 330 329 331 331 329 328 318 322 328 334 338 337 339 340 343 344 345 342 342 342 343 341 341 339 338 337 336 335 333 332 331 331 330 329 328 328 328 327 326 326 326 325 325 325 325 324 325
295 295 295 296 297 297 299 302 302 302 302 302 303 304 305 306 308 310 310 312 317 321 321 321 321 322 324 325 325 324 326 327 327 327 327 328 327 327 328 328 330 331 324 328 328 324 323 328 333 335 338 340 343 343 343 344 343 342 341 341 338 338 336 336 336 334 332 332 331 330 329 329 328 327 327 326 326 326 325 325 325 325 325 326 326
295 295 296 296 296 297 299 300 301 301 301 301 302 303 304 305 306 307 309 310 311 315 320 320 320 321 323 324 325 324 325 326 326 327 326 326 327 327 327 325 326 320 328 328 328 327 323 325 328 330 331 335 339 342 343 344 344 341 340 339 338 338 335 336 335 334 332 331 330 328 328 328 328 327 326 324 325 325 326 325 325 325 325 327 326
294 295 295 296 297 297 298 299 300 300 300 301 301 302 303 304 304 306 307 307 307 308 315 319 319 320 321 322 324 324 324 325 325 319 325 325 326 326 325 324 325 326 327 327 327 328 328 325 325 326 323 329 336 340 339 341 342 343 343 341 339 336 335 334 334 332 331 330 328 327 327 327 326 325 325 325 325 325 325 325 325 325 325 327 326
294 295 295 295 295 296 297 298 299 300 300 300 300 300 301 303 304 304 305 305 305 306 309 316 317 318 320 321 323 323 325 325 323 321 322 324 325 324 325 324 324 325 325 326 326 327 327 326 327 326 327 326 334 337 339 340 340 340 340 340 339 337 335 333 333 332 330 329 327 327 327 326 326 326 325 325 325 325 325 325 325 325 325 325 325
293 293 294 294 295 295 297 298 299 299 299 299 299 299 299 301 302 303 303 303 305 305 307 312 315 315 314 319 321 323 323 322 322 322 319 320 322 322 323 324 324 324 324 325 325 326 327 327 323 325 326 326 328 331 335 335 334 337 337 338 336 336 335 333 332 331 330 328 328 327 327 325 324 324 325 325 325 325 326 325 325 325 325 325 324
290 290 291 293 294 295 296 297 298 299 299 299 299 299 300 301 302 303 302 301 301 303 305 307 310 312 314 315 318 321 320 320 319 321 321 321 319 320 320 322 324 324 324 325 325 326 327 327 327 327 327 328 325 322 325 326 326 333 335 335 337 337 336 334 333 331 329 328 328 327 326 325 325 324 325 326 326 326 326 326 326 326 326 325 325
289 289 289 289 291 293 295 296 297 298 299 299 299 299 300 300 301 301 302 301 300 302 304 305 303 307 309 309 312 313 314 317 317 316 318 319 318 319 320 322 322 323 324 325 325 325 326 327 328 327 326 328 328 328 327 325 325 331 333 334 336 336 335 335 333 331 329 328 327 327 326 326 325 326 326 326 326 326 326 326 326 326 326 326 326
288 288 288 288 288 289 292 295 297 298 298 298 298 298 298 298 299 299 299 301 300 302 302 304 301 305 310 308 304 304 305 308 311 313 314 317 318 318 318 320 321 322 323 323 324 325 325 326 326 327 326 327 328 328 328 321 324 319 326 329 332 334 335 334 333 332 329 329 328 326 326 326 325 326 326 326 327 326 327 327 327 327 326 326 326
287 287 287 287 287 287 289 293 296 297 298 297 297 297 297 297 298 299 300 297 298 298 301 302 302 303 302 305 306 306 303 305 308 309 311 315 317 317 319 320 321 321 322 322 322 321 324 324 324 326 326 326 326 327 326 326 318 313 316 320 323 330 333 334 334 333 330 329 328 327 326 326 326 327 326 327 327 327 328 328 327 327 327 327 327
285 286 286 286 286 286 287 291 295 296 297 297 297 297 296 297 298 298 299 298 297 298 299 301 300 301 301 305 303 303 305 307 309 303 305 311 314 316 316 319 321 320 321 322 322 322 321 322 324 326 326 325 324 324 325 324 321 314 318 313 318 323 327 332 333 333 332 331 328 326 325 326 326 327 327 327 327 328 327 328 328 328 328 328 327
284 284 285 286 285 286 287 290 293 295 296 297 297 296 296 296 297 298 299 300 299 298 297 299 300 299 300 302 309 305 306 308 308 301 300 305 312 314 316 318 320 319 320 321 321 321 318 320 322 323 325 324 323 323 323 323 316 322 322 320 317 320 323 327 331 333 332 331 329 327 327 327 327 327 327 327 327 327 328 328 328 328 328 328 328
282 284 285 285 286 286 287 290 293 294 295 295 295 295 295 296 298 298 300 300 301 298 298 297 299 299 299 301 301 308 311 308 304 302 298 300 309 311 313 316 318 319 319 320 320 321 321 319 320 322 322 322 323 323 322 321 316 316 313 312 316 319 321 322 325 329 330 330 330 329 328 327 328 327 327 327 328 328 329 329 329 329 329 329 329
283 284 285 285 286 287 289 291 292 293 293 294 294 295 296 298 298 299 301 301 301 299 298 298 295 294 298 297 298 301 310 312 311 306 304 300 303 309 312 315 317 318 318 319 320 320 320 320 320 321 320 320 320 321 321 320 321 320 314 312 317 319 321 322 322 322 324 327 329 330 330 329 328 327 327 328 329 329 329 329 329 330 329 329 329
283 282 282 283 285 285 287 290 292 293 293 294 295 296 296 297 297 299 299 299 300 299 298 297 297 296 296 296 297 298 305 311 311 311 306 303 303 304 306 309 314 316 317 319 319 320 319 320 320 319 315 317 319 320 320 320 320 319 314 313 317 319 320 321 320 320 320 321 326 328 329 329 329 329 329 329 329 330 329 329 329 330 330 330 329
280 281 282 282 283 283 284 287 288 289 291 293 295 295 296 296 297 299 299 299 300 299 298 298 297 297 297 296 294 294 296 305 309 309 308 309 303 305 307 306 306 310 316 317 318 319 320 320 319 320 319 318 319 319 319 319 319 319 315 312 316 318 319 320 321 320 319 319 321 323 328 328 330 330 330 330 329 328 329 329 329 330 329 329 329
279 280 281 281 281 282 283 284 286 287 289 292 293 294 295 296 297 297 296 297 297 298 297 297 297 297 296 296 295 295 294 296 307 308 308 306 305 306 307 308 310 309 312 316 315 318 319 320 319 320 319 318 320 319 318 319 313 314 310 312 315 317 319 320 319 319 318 319 321 321 324 325 327 328 330 328 329 330 330 329 329 329 330 329 330
278 279 280 281 281 281 282 283 284 286 287 289 291 293 295 296 296 296 296 297 298 297 297 296 296 296 296 297 296 297 297 296 301 310 309 309 308 307 307 308 309 308 310 313 315 317 317 318 318 318 318 319 319 318 318 318 317 308 310 310 314 315 318 319 318 317 318 319 319 320 322 323 323 324 327 327 329 329 329 330 330 329 329 330 330
276 277 279 280 280 279 280 281 283 285 286 287 288 290 293 295 295 296 297 297 297 297 295 295 295 294 294 296 296 296 296 299 299 307 311 311 310 307 308 309 305 299 299 310 308 313 316 316 317 317 317 317 318 318 318 318 317 309 309 308 312 314 316 319 318 317 317 317 317 318 321 322 322 324 327 328 329 329 329 329 329 330 330 329 330
276 276 278 279 279 279 280 281 283 285 285 285 286 288 292 294 294 296 296 297 296 296 295 295 295 295 295 294 295 295 297 298 298 305 311 310 308 308 306 304 305 300 296 299 300 307 302 313 315 315 315 316 317 317 317 318 316 306 308 312 312 312 314 317 318 317 316 316 317 317 316 317 321 323 324 327 327 328 329 328 329 329 329 330 330
275 276 277 278 279 279 279 279 281 284 284 284 286 288 291 293 294 296 296 295 295 295 295 295 294 294 294 295 294 295 296 297 298 303 313 312 310 309 307 301 298 299 300 298 303 308 305 301 313 313 313 313 315 316 317 317 312 305 305 315 315 308 312 315 317 317 316 316 316 316 315 316 318 322 322 322 325 326 329 329 328 329 329 328 328
275 276 276 277 278 278 278 278 280 282 283 284 285 287 289 291 293 294 293 295 295 294 295 296 295 295 295 295 295 295 297 297 298 302 313 313 312 311 309 305 300 295 299 300 302 303 303 301 298 308 311 312 314 314 311 312 313 303 303 315 315 312 310 313 316 317 317 316 315 315 314 315 316 317 319 319 319 319 320 323 324 323 323 324 324
275 276 275 276 276 277 277 278 279 280 282 284 285 285 287 289 291 293 291 294 293 293 295 295 296 296 296 295 295 295 296 297 298 302 312 312 313 313 311 308 306 300 297 298 301 301 300 306 303 299 308 311 312 313 314 314 309 306 313 314 315 315 310 313 315 317 317 316 315 315 314 314 315 316 316 316 317 319 321 321 321 322 321 321 322
275 275 275 275 276 277 277 278 279 279 282 283 283 283 284 286 289 291 292 293 293 293 293 295 295 296 295 296 295 295 296 296 298 301 310 312 312 313 311 310 309 304 302 299 300 303 301 303 305 300 297 306 310 311 312 311 305 308 314 315 315 316 308 310 313 315 315 315 315 315 314 314 314 313 314 315 317 318 320 320 320 320 320 320 323
275 274 274 275 275 276 276 277 277 279 280 281 281 282 282 283 285 288 291 292 292 292 293 294 295 295 295 295 296 295 295 296 297 301 308 310 313 312 312 312 310 308 306 304 299 298 304 302 302 300 302 303 306 308 311 310 305 309 314 314 315 309 306 309 310 313 314 314 315 314 314 313 313 312 312 312 316 317 319 319 318 318 319 320 322
274 274 274 274 274 274 275 275 276 278 279 279 279 280 281 281 283 286 289 291 291 292 292 294 295 295 295 295 295 295 295 295 296 300 308 308 311 312 312 311 311 310 309 307 303 300 303 305 303 301 303 301 302 306 305 308 305 303 313 314 313 304 310 314 308 310 312 313 313 313 312 312 312 312 312 312 315 316 317 316 316 317 318 318 320
274 273 273 273 273 274 274 275 275 276 277 277 278 279 280 281 282 285 287 290 290 291 292 292 294 295 295 295 295 295 295 295 295 298 306 308 309 311 312 312 310 310 309 307 304 300 301 301 302 302 302 301 300 303 303 303 303 306 308 312 311 308 313 315 312 306 309 311 311 312 312 312 311 312 311 311 312 314 315 315 316 315 316 319 320
273 273 273 273 273 273 273 274 274 275 275 275 276 278 279 280 281 283 285 288 290 291 291 291 293 294 295 295 295 296 296 295 295 296 304 307 308 309 310 311 310 310 310 307 303 300 296 296 299 301 301 304 301 299 303 302 303 299 308 309 309 308 312 312 312 311 307 309 310 311 311 311 311 311 311 311 312 313 314 315 314 313 314 317 316
272 272 272 272 272 273 273 273 273 273 273 274 276 277 278 278 279 280 282 285 288 290 290 290 291 292 293 294 296 297 297 296 296 297 302 306 308 308 309 310 309 309 308 307 303 298 297 296 299 299 299 302 301 298 301 304 303 303 306 306 306 306 307 307 309 308 306 308 310 310 310 311 311 311 310 310 311 311 312 313 313 312 313 313 314
271 271 272 272 272 272 272 272 272 271 272 273 274 275 276 277 278 279 281 283 287 289 290 290 290 291 291 292 294 296 297 297 296 297 302 306 308 308 308 308 308 307 306 305 304 301 299 296 296 299 301 301 298 298 301 302 302 299 304 302 301 304 302 303 305 303 305 308 308 307 308 310 310 310 310 310 310 311 311 311 311 312 311 310 310
270 270 270 271 271 271 271 270 271 271 271 272 272 273 274 277 278 279 280 282 285 288 290 290 290 290 291 291 293 295 297 297 297 297 301 305 306 307 307 307 307 306 305 304 303 303 300 297 297 299 301 301 298 297 298 299 298 296 294 296 299 302 299 299 302 303 302 305 306 305 306 308 309 309 309 310 310 310 310 311 311 310 309 309 308
270 270 269 270 270 270 270 270 270 270 271 271 271 272 273 274 276 277 278 281 285 288 289 290 290 290 290 291 293 296 297 297 297 298 302 304 306 306 306 306 304 303 302 301 302 301 301 299 298 296 299 297 294 295 297 300 299 297 294 292 293 294 295 294 296 299 302 305 305 305 303 305 305 308 309 309 310 310 310 310 309 308 306 306 306
268 268 269 269 269 269 269 270 270 270 270 270 271 272 272 273 274 276 278 280 284 287 289 290 290 291 291 292 293 294 296 297 298 298 301 303 305 305 306 305 303 302 300 301 301 300 299 297 298 299 298 298 298 295 296 299 300 300 298 294 294 293 294 297 296 294 298 300 300 302 303 303 303 306 306 307 309 309 308 309 308 307 304 304 305
268 267 267 268 268 269 269 269 270 270 270 270 271 271 272 273 274 276 278 279 282 285 288 289 290 290 290 290 291 293 295 297 298 299 302 305 305 304 307 305 303 302 300 299 299 298 297 296 297 297 298 297 295 296 296 297 297 297 299 298 297 295 294 295 296 296 293 298 298 298 300 302 303 305 305 306 306 308 307 306 305 304 302 304 305
267 267 267 267 267 267 268 268 269 269 269 269 270 271 272 273 275 276 278 279 282 284 287 288 289 289 289 290 290 291 292 291 291 292 296 302 306 302 304 304 302 301 299 299 299 298 297 296 296 297 297 296 296 294 294 296 297 297 299 299 297 296 295 294 293 295 297 297 296 297 297 299 300 302 304 304 305 305 304 303 303 300 301 304 305
266 266 266 267 267 267 267 267 268 269 269 270 272 275 276 274 275 276 278 279 282 284 287 288 288 288 288 289 289 289 289 289 290 291 293 296 301 305 305 303 300 300 298 297 298 297 297 296 295 295 295 295 295 295 296 298 299 298 298 298 296 293 294 293 292 290 291 297 296 295 294 295 299 298 299 303 303 302 305 305 305 303 302 305 305
265 266 266 266 267 267 267 267 267 268 269 270 274 276 278 279 278 278 279 280 282 284 286 288 287 287 287 288 289 289 289 289 290 292 294 295 299 301 301 301 301 301 298 297 297 297 296 296 296 295 296 295 295 297 297 298 298 298 298 298 297 295 295 294 293 291 292 296 296 295 294 292 297 298 297 299 299 298 301 303 303 301 302 305 305
265 266 266 266 266 267 267 267 267 268 268 272 274 275 277 279 280 279 280 281 282 283 285 287 288 287 287 287 288 289 290 291 291 293 294 294 297 300 300 299 299 299 300 299 297 297 296 296 295 295 295 295 296 297 298 297 297 297 298 297 296 295 295 296 296 293 294 295 296 295 294 291 291 298 296 296 296 299 300 302 302 302 304 304 304
265 265 266 266 266 267 267 267 267 268 268 272 274 275 276 278 280 280 279 280 281 282 284 285 286 287 287 286 287 289 290 289 289 292 295 296 296 298 298 298 298 299 299 300 299 298 298 297 295 295 296 297 295 296 298 298 297 296 295 296 296 296 297 296 296 295 292 295 297 294 294 292 291 294 296 295 295 296 298 301 302 302 303 304 304
265 265 266 266 266 266 267 267 267 268 268 271 274 275 276 277 279 280 279 280 281 281 282 284 286 287 287 287 286 287 288 289 290 292 295 298 299 300 300 300 300 298 298 298 297 297 297 298 297 295 298 298 297 298 297 297 296 295 295 295 295 295 295 297 296 295 295 297 297 294 292 291 290 294 295 293 290 292 293 298 301 302 303 303 303
264 265 265 265 266 266 267 267 268 268 269 273 275 276 277 279 280 281 279 280 281 281 282 283 285 287 288 288 287 287 288 288 289 291 293 297 298 297 298 298 300 300 301 301 301 301 300 302 300 300 300 300 300 299 298 298 297 298 297 296 295 296 293 290 290 291 293 296 296 295 292 292 289 293 294 289 288 289 289 296 300 301 303 303 302
265 266 266 267 266 266 267 267 268 268 269 274 275 276 277 279 281 280 280 281 281 281 282 283 285 287 288 288 287 287 288 288 289 291 292 295 296 295 295 297 299 301 302 300 299 300 301 303 302 302 302 301 300 298 297 297 297 297 295 293 292 291 292 293 291 290 292 294 292 293 291 290 290 294 290 287 288 289 288 290 298 300 302 302 302
265 266 266 266 267 267 267 268 268 269 269 273 275 276 277 279 280 279 280 281 281 282 282 283 284 286 288 288 288 288 288 288 289 291 293 294 295 294 295 296 297 298 300 301 298 298 299 299 300 300 300 300 300 299 298 298 296 296 295 293 292 294 294 292 290 290 291 293 292 292 292 290 289 292 288 287 288 288 288 289 292 299 300 301 301
265 266 267 267 268 268 268 268 269 269 269 272 275 276 278 279 280 279 280 281 281 282 282 283 285 286 287 288 288 288 288 288 290 292 293 293 295 294 295 295 295 296 298 300 299 299 298 298 298 298 298 299 298 298 298 298 297 295 296 295 294 295 294 293 290 291 292 292 293 291 291 290 290 290 287 286 287 286 288 288 290 294 298 299 300
266 267 267 267 268 269 269 269 272 271 270 271 275 276 278 279 279 280 280 281 281 282 283 283 285 286 287 287 288 288 288 289 291 292 293 294 295 295 296 296 295 295 298 298 297 295 295 295 295 296 296 296 297 297 295 297 296 295 298 297 295 296 295 293 291 289 289 290 292 290 291 288 289 289 288 286 285 284 286 288 289 291 294 296 298
Wind_Speed
10 10 11 11 12 14 13 12 11 11 11 12 12 13 12 11 12 12 11 12 11 11 10 10 9 9 10 10 10 9 10 10 10 11 10 11 11 14 19 19 19 20 20 24 26 26 20 27 29 29 29 30 31 31 32 32 34 32 30 33 33 32 30 30 28 28 25 24 25 23 24 25 25 23 23 23 22 22 21 21 20 21 21 21 20
10 10 10 11 12 13 13 13 12 11 11 12 12 13 14 12 12 14 15 12 12 12 10 11 11 10 10 10 11 11 10 12 12 12 13 11 12 13 21 19 19 20 21 20 24 24 20 24 27 29 29 30 32 34 30 30 32 31 31 31 32 32 32 28 28 28 26 25 25 25 25 25 24 23 24 23 22 22 22 21 21 22 22 21 21
10 10 9 10 11 11 12 13 13 11 10 12 11 13 15 16 14 12 11 12 13 11 10 11 11 10 10 11 10 10 11 11 12 12 13 13 12 12 15 21 19 20 21 21 16 18 23 28 31 31 28 30 31 31 33 33 31 31 31 32 32 32 31 28 29 27 25 25 25 25 24 24 23 23 24 24 23 22 22 22 23 23 22 23 20
10 10 9 10 10 10 11 11 12 11 10 11 13 13 13 14 16 16 17 16 15 12 12 11 11 11 10 12 11 9 10 11 12 12 13 12 12 12 12 14 21 21 20 19 17 18 24 29 26 25 28 30 31 32 35 33 32 31 31 31 31 32 33 31 30 29 28 25 24 24 24 23 24 25 24 23 23 23 22 22 22 22 21 21 21
10 10 11 11 11 10 10 11 10 10 12 12 14 13 13 13 15 15 15 15 14 13 11 10 11 11 11 12 11 11 11 11 11 12 13 13 12 12 11 12 13 20 23 21 19 18 24 26 26 27 31 33 33 35 33 33 32 33 33 33 33 33 33 31 29 30 29 27 27 26 24 25 25 24 24 24 23 23 23 23 22 22 22 23 23
9 11 11 11 11 11 10 9 9 10 11 11 11 11 13 14 14 14 13 13 15 14 12 12 11 10 11 11 11 11 10 11 12 12 12 12 12 11 11 10 11 12 15 22 19 17 21 23 24 28 32 35 34 34 34 33 33 34 33 32 31 35 35 34 34 32 29 27 27 26 25 26 26 25 25 24 23 23 23 23 23 23 23 23 22
11 11 12 11 11 10 11 10 9 10 9 9 10 11 11 13 12 13 14 14 16 12 12 13 12 12 12 10 11 11 11 11 12 13 13 12 11 11 11 10 11 12 13 11 15 19 18 24 27 29 30 33 34 37 37 35 37 36 34 34 36 35 35 35 35 32 32 28 25 25 25 26 27 27 26 25 24 24 23 23 23 24 23 23 24
11 11 12 11 11 11 10 10 10 9 9 9 9 10 11 12 12 12 13 15 15 14 11 13 12 14 12 11 11 11 11 11 12 13 13 12 11 11 10 11 12 12 12 10 10 14 23 21 23 29 35 34 34 36 39 39 39 34 35 35 36 36 35 35 32 32 30 26 25 25 26 25 26 27 25 24 25 24 24 24 24 24 24 24 25
12 12 12 12 11 12 10 11 10 9 9 9 9 9 10 12 13 11 10 12 15 18 16 13 14 14 13 13 13 13 12 12 12 12 12 13 13 13 12 11 13 15 13 11 10 9 18 24 20 19 25 28 32 31 32 36 34 36 35 35 34 33 32 31 30 29 27 25 25 26 26 27 26 26 26 27 26 25 24 24 24 24 23 24 24
12 12 12 12 12 12 11 11 10 10 9 9 10 8 9 10 13 12 10 10 12 15 17 16 14 13 14 15 15 13 13 13 11 9 12 14 13 13 12 11 11 12 13 11 11 10 11 16 19 21 26 29 30 29 32 33 35 35 36 35 34 33 31 29 29 28 28 27 27 27 28 27 27 27 27 27 26 25 25 26 25 23 23 24 24
13 13 12 12 12 12 12 11 9 9 9 10 9 9 9 10 12 13 12 10 10 13 16 16 15 14 15 17 15 15 13 12 11 9 11 16 16 14 11 12 11 11 11 12 10 10 10 8 7 5 15 36 34 34 33 33 33 34 34 34 33 34 31 29 28 28 29 29 28 28 27 28 28 27 27 26 25 25 27 27 26 26 25 23 23
14 14 14 13 13 12 12 11 10 9 10 10 9 9 11 12 12 12 14 14 10 10 12 15 12 10 9 10 12 14 15 13 13 14 9 9 11 12 13 11 11 10 10 9 9 10 10 9 6 5 6 17 23 23 30 34 36 37 35 34 35 33 32 32 29 28 28 29 28 28 28 29 29 29 27 27 27 27 26 27 27 26 26 25 25
16 15 16 16 15 14 13 11 10 10 10 11 10 10 10 10 11 10 11 13 13 10 10 12 15 10 7 9 10 12 13 14 14 14 14 11 8 7 8 10 10 10 9 8 10 11 10 10 9 6 7 6 14 18 14 14 18 28 34 35 34 33 33 32 31 30 31 29 30 29 28 29 30 29 29 27 27 28 28 28 27 26 26 26 25
14 15 16 16 17 15 14 13 11 11 11 11 10 8 9 9 8 11 8 10 12 11 10 8 12 12 10 8 10 7 6 9 12 11 12 13 11 9 7 10 10 9 9 10 9 9 9 10 11 10 7 11 10 10 13 12 14 19 26 30 32 33 34 33 34 34 29 29 30 29 28 27 29 29 30 28 29 28 28 29 28 29 28 27 27
15 14 13 15 16 18 16 14 13 11 11 11 10 11 8 8 9 10 12 7 9 9 10 7 10 13 14 9 8 6 4 4 5 10 11 12 13 13 10 10 9 8 8 8 8 9 8 9 11 11 10 9 11 13 11 13 15 21 21 23 29 34 34 34 34 33 30 30 29 30 29 28 29 29 28 28 28 27 28 28 28 27 28 27 27
15 14 14 15 17 18 18 16 14 11 11 12 12 11 9 7 8 8 9 13 8 10 7 9 8 10 14 11 8 11 8 12 11 7 9 11 15 16 12 12 11 10 7 9 8 7 9 8 12 13 13 11 9 13 14 11 16 22 25 23 21 27 33 35 34 33 32 32 30 29 29 30 29 29 30 28 28 28 27 27 27 27 27 27 26
17 15 15 15 18 17 18 17 14 12 10 11 11 11 10 7 8 9 10 12 14 9 10 7 10 9 11 9 6 8 13 13 14 5 7 9 10 14 15 15 14 12 11 10 9 9 8 9 10 13 13 11 12 11 14 14 13 11 17 22 23 22 30 34 35 34 34 33 31 31 31 31 31 31 30 29 28 28 28 27 27 27 27 27 27
14 16 17 14 17 17 18 18 15 13 11 11 11 11 11 10 9 9 11 11 11 11 12 8 7 10 12 15 14 11 14 8 15 11 3 4 9 10 12 15 15 15 12 12 11 10 8 8 8 10 12 12 12 12 11 14 11 13 13 17 25 23 22 27 32 33 33 33 32 32 31 30 31 29 29 29 30 29 27 28 28 27 27 27 26
16 15 13 15 15 16 17 16 15 13 12 11 12 13 12 11 9 8 11 10 10 12 11 11 8 9 10 13 18 19 9 8 14 5 6 3 8 12 12 12 13 14 14 15 13 11 10 9 9 11 11 10 13 12 12 14 17 14 18 22 23 24 25 24 27 31 33 32 30 31 32 32 30 30 31 30 29 29 27 27 27 26 26 26 26
15 11 10 15 16 16 14 13 14 14 12 12 13 12 11 10 9 11 11 10 9 10 11 9 8 13 7 9 13 20 19 14 18 20 16 15 13 10 10 13 12 13 13 15 15 13 13 12 11 11 9 10 10 12 12 14 15 15 15 23 23 23 25 25 24 24 26 28 32 31 32 32 32 32 31 30 27 27 28 27 25 24 24 25 26
12 14 15 15 15 16 16 14 14 14 12 12 13 13 13 12 11 10 10 9 8 9 10 9 7 11 9 10 10 14 18 16 16 16 14 15 13 16 14 6 9 12 13 15 15 14 13 14 13 12 8 9 11 12 12 13 13 13 16 26 27 25 24 24 24 25 24 26 29 32 33 32 32 32 30 29 26 28 27 26 25 25 26 26 25
11 12 13 13 15 14 15 14 13 14 13 13 15 14 12 12 12 11 9 9 8 9 10 9 7 8 7 9 8 12 16 16 14 16 13 19 18 18 17 17 15 12 13 15 17 16 15 14 15 14 12 10 11 11 12 13 14 14 16 24 25 24 24 23 23 23 25 24 25 26 29 32 32 32 30 28 28 27 24 25 26 24 25 26 25
10 12 12 13 13 13 14 14 13 12 13 15 14 14 13 12 11 10 9 10 9 11 11 10 8 9 9 8 11 12 12 16 14 15 16 14 14 18 18 19 20 16 13 14 14 16 15 15 16 15 15 13 11 12 11 12 15 18 23 21 22 23 24 23 22 23 21 22 22 23 25 25 26 28 28 26 27 27 26 26 25 25 25 24 24
11 13 11 10 10 12 14 14 13 12 13 13 14 14 14 13 10 9 8 10 10 10 10 10 11 9 9 7 9 10 11 14 20 16 17 18 19 18 17 15 12 9 8 11 12 13 15 15 15 15 16 14 14 14 13 14 14 25 21 22 21 22 22 22 23 21 21 21 22 22 21 21 22 24 25 26 27 27 27 27 25 25 24 24 24
14 15 16 16 13 12 14 14 13 12 12 13 15 17 15 14 12 10 10 10 10 11 11 11 10 10 9 8 9 10 12 13 17 21 15 14 16 18 14 15 15 9 5 13 9 12 14 14 14 12 14 14 13 15 15 14 14 21 22 19 24 21 20 21 21 20 20 21 20 21 21 21 21 22 22 24 27 26 26 26 26 25 26 26 25
16 17 16 15 13 14 15 15 15 14 13 14 15 16 16 14 14 12 11 10 10 12 12 11 10 11 9 9 10 10 11 11 16 22 19 15 14 18 17 10 13 11 5 5 5 10 4 11 13 13 13 14 14 14 15 16 15 23 25 18 20 22 21 21 22 20 20 20 20 19 19 19 20 20 21 24 26 27 26 25 26 25 25 25 26
18 17 17 18 17 15 15 17 19 14 13 14 13 14 16 14 14 14 10 7 10 10 10 11 11 11 12 11 10 9 10 11 14 23 19 18 18 15 17 17 9 10 11 5 10 15 12 4 13 14 13 14 14 15 15 15 18 24 23 19 15 23 21 22 22 21 21 20 20 20 20 20 20 20 21 20 21 23 25 25 26 25 24 25 25
14 18 18 17 16 16 16 18 18 14 14 14 13 12 14 14 13 13 12 8 9 10 10 11 12 12 11 10 9 10 11 12 14 22 21 19 18 18 19 19 20 14 11 13 13 9 9 9 1 10 14 13 13 12 15 17 15 21 21 15 16 16 21 22 23 22 22 21 20 20 21 21 20 20 19 20 19 18 18 21 21 21 22 23 23
15 17 16 16 16 16 16 17 16 15 16 14 12 13 14 14 13 13 11 9 9 9 9 10 10 9 8 9 9 10 11 11 15 20 21 18 18 20 20 21 20 19 14 16 16 12 9 12 13 5 11 14 13 12 15 13 17 19 14 14 16 15 20 23 23 22 22 21 19 20 20 19 20 20 18 17 17 18 17 19 21 21 19 18 16
16 15 17 17 16 17 16 15 13 14 15 13 11 13 14 14 14 14 12 9 9 7 7 9 10 8 9 9 9 9 10 11 15 22 20 18 18 20 19 18 19 22 17 19 15 12 14 9 10 11 6 12 12 12 13 13 18 21 15 14 14 16 24 24 23 24 23 22 20 19 19 18 18 16 16 18 19 21 19 20 18 16 16 17 16
15 17 17 16 16 15 15 15 14 15 14 12 12 12 13 13 14 13 12 11 9 8 9 9 10 8 10 11 9 10 9 11 14 21 17 14 17 18 18 19 18 20 20 17 14 5 12 15 7 9 16 12 12 12 12 11 16 19 16 14 14 19 24 21 24 24 23 23 21 21 19 18 17 15 16 18 21 21 19 19 19 17 17 18 18
18 17 17 17 17 16 15 16 16 15 13 12 12 12 12 12 13 13 13 12 11 8 8 8 8 8 10 12 11 10 9 9 13 19 15 14 16 18 17 15 17 17 18 18 18 15 11 14 13 12 15 14 12 14 12 12 15 20 14 14 15 19 17 15 22 22 24 23 23 21 19 18 17 17 16 16 18 19 19 18 17 17 19 19 19
16 18 18 17 17 16 16 16 16 14 13 14 12 12 12 13 12 13 14 14 13 10 7 9 9 10 10 12 12 11 9 10 13 16 15 15 16 16 18 17 14 13 16 17 18 14 6 3 12 15 14 16 11 13 15 12 13 12 15 14 15 14 16 15 17 24 24 23 22 21 20 19 17 19 16 15 15 16 18 18 17 18 18 19 19
17 17 19 17 16 17 16 16 15 15 15 17 16 13 12 13 13 12 11 14 12 11 8 9 9 9 10 11 13 11 10 11 15 18 16 14 16 16 17 19 18 16 15 16 15 18 13 8 9 11 13 19 16 10 16 16 16 11 15 14 12 12 14 14 14 15 25 22 22 21 19 20 18 17 16 15 14 15 17 19 19 18 19 20 19
17 16 17 17 18 17 17 16 16 15 16 17 15 13 12 13 13 14 15 15 14 12 9 9 9 9 11 11 11 10 9 11 14 16 17 14 15 17 19 18 19 17 14 15 17 16 19 12 14 15 14 13 16 15 15 15 16 14 16 14 13 12 11 12 13 11 20 22 23 21 17 20 18 16 15 15 15 16 17 18 20 20 20 20 20
17 17 17 18 18 18 17 17 17 16 17 16 16 15 16 15 13 13 14 15 14 12 10 9 8 9 10 11 11 11 10 12 14 15 15 13 14 16 18 16 16 15 14 15 19 18 16 16 11 16 15 16 9 9 12 15 15 10 13 11 9 12 10 11 12 10 16 23 22 20 18 18 19 17 15 15 16 16 17 18 20 21 21 21 21
18 18 17 17 18 18 17 17 17 16 16 17 17 16 16 14 14 13 14 16 15 12 10 10 9 9 10 10 11 11 10 12 14 14 15 15 14 14 15 14 14 13 13 15 16 18 18 19 14 11 14 12 10 13 12 15 11 7 5 8 11 13 11 10 11 11 18 23 23 22 16 16 17 17 17 16 17 18 17 18 20 20 22 22 22
21 18 18 16 16 18 18 17 17 17 16 17 18 17 16 16 15 14 14 16 16 14 11 10 9 8 9 10 10 10 10 12 14 14 15 15 15 14 16 14 13 13 14 14 15 16 20 19 18 12 10 13 10 10 11 15 16 13 8 5 4 5 8 8 8 9 12 13 13 15 16 15 16 17 17 17 17 18 19 18 20 21 21 22 22
18 18 18 18 17 18 19 17 17 17 17 17 17 16 16 16 16 16 14 15 16 13 11 10 10 9 9 9 9 10 11 11 13 15 16 13 13 16 17 16 15 15 15 15 16 16 15 16 16 19 15 12 17 14 9 13 18 18 18 13 10 6 7 13 10 4 7 9 10 14 14 12 13 12 15 18 19 20 20 19 20 21 22 22 22
18 18 18 18 18 17 17 17 16 16 17 17 16 16 16 16 15 15 14 14 16 14 13 11 10 9 9 9 9 9 11 12 12 13 16 14 10 14 15 15 17 18 16 15 16 16 15 15 15 15 16 15 6 8 11 12 12 9 12 15 18 15 10 10 11 10 5 11 8 6 9 13 14 16 18 18 21 21 21 20 21 21 22 22 22
16 17 18 18 19 19 19 18 18 17 16 16 14 13 14 15 15 15 14 14 14 14 14 12 10 9 8 9 9 9 10 15 19 17 18 17 13 11 14 15 16 18 17 15 16 16 16 16 14 14 14 14 14 13 14 14 18 18 16 15 12 10 9 7 3 5 11 11 7 8 8 9 9 8 9 8 10 16 18 20 18 23 23 23 23
17 17 17 17 17 17 18 18 16 15 14 13 17 25 22 16 15 13 13 14 14 13 13 11 10 9 9 8 9 13 16 18 19 19 18 20 23 15 13 17 18 18 18 18 17 17 17 17 15 15 16 15 16 18 19 20 17 13 14 16 15 11 10 6 5 1 3 11 12 10 6 6 11 10 10 12 11 13 11 13 12 14 20 24 24
16 16 15 16 16 16 16 17 17 15 14 14 23 23 24 26 19 15 14 13 13 13 13 12 11 9 8 8 9 11 13 15 14 17 17 19 26 25 21 21 21 22 20 20 19 19 19 19 17 17 18 20 19 19 19 17 14 19 19 17 17 16 17 17 16 3 3 10 10 10 8 5 8 12 9 9 10 9 10 13 18 21 23 23 24
15 14 15 16 16 15 14 15 16 15 15 19 25 25 27 26 23 16 13 12 11 12 12 12 10 9 9 9 9 9 10 12 12 14 16 17 24 26 24 24 24 26 27 24 21 19 20 19 19 20 20 21 19 18 16 16 17 16 16 15 17 20 18 18 15 15 9 10 13 11 9 3 3 9 10 10 9 11 12 15 21 22 22 23 24
15 16 16 15 15 15 15 16 16 16 16 21 24 26 26 26 26 22 14 14 13 12 12 13 12 11 9 9 10 10 11 15 13 13 13 11 19 25 26 26 28 28 28 30 28 23 19 21 22 20 20 19 20 19 20 20 18 19 17 17 16 17 17 17 15 11 10 11 12 11 12 8 7 8 10 8 9 9 10 14 19 21 21 23 23
16 16 15 15 16 15 14 15 15 15 17 21 25 25 25 26 26 22 14 14 13 13 13 13 13 12 12 10 10 10 10 10 10 13 13 11 12 17 19 18 19 25 28 30 30 29 24 20 21 21 17 18 21 20 17 18 21 21 20 20 18 17 18 18 13 12 11 12 15 11 7 8 7 10 12 8 5 7 8 12 19 20 22 23 23
15 14 14 15 14 14 14 14 14 15 15 25 25 25 25 25 25 22 15 14 13 12 13 14 15 14 13 12 11 11 10 11 11 12 13 11 11 13 18 18 18 19 20 21 22 21 21 20 23 25 23 21 21 20 18 18 24 22 22 22 21 17 9 10 10 7 9 8 9 13 15 11 6 9 9 7 6 6 4 7 16 19 21 22 22
14 13 14 13 14 16 15 14 15 16 16 27 26 25 25 25 26 15 13 13 13 12 13 14 15 14 13 12 11 11 11 12 14 17 16 13 10 13 16 18 17 17 18 20 24 24 23 21 21 21 21 23 23 25 24 22 19 16 12 11 11 11 13 14 12 9 12 8 4 9 7 9 9 11 7 5 6 7 5 5 10 16 17 19 21
14 13 13 12 13 12 15 14 15 15 15 22 25 25 24 25 21 13 13 12 12 12 13 14 15 14 13 12 12 11 11 11 14 18 18 19 11 14 16 18 17 17 17 16 22 25 24 24 25 27 27 27 27 27 29 32 23 19 18 18 16 16 16 15 10 11 12 11 8 6 7 11 9 8 7 5 7 6 6 6 6 13 17 18 20
16 17 15 14 13 12 14 16 14 14 15 19 26 25 25 25 21 14 12 11 12 12 12 14 13 13 14 19 15 12 12 12 16 18 19 15 13 15 16 18 17 18 16 14 13 15 25 25 26 26 28 29 31 31 29 26 26 23 23 24 22 18 17 17 18 15 12 11 11 9 9 9 10 7 8 4 3 1 6 6 7 8 13 14 18
16 16 14 15 14 11 12 14 22 21 16 19 27 26 28 26 20 13 13 12 12 11 11 12 12 12 11 13 19 16 13 13 16 17 19 16 14 16 16 17 19 20 18 17 18 16 12 10 11 15 17 23 23 22 22 29 28 25 23 23 20 20 19 16 14 12 9 11 12 12 13 8 13 10 11 8 6 1 2 5 6 7 8 9 11
Wind_Direction
326 325 324 324 322 321 319 316 318 319 319 314 309 298 281 268 259 250 238 235 234 234 229 227 222 220 220 221 216 209 205 206 211 205 218 216 205 203 199 201 202 206 213 221 224 227 216 215 209 210 201 199 191 190 184 180 180 174 174 167 164 160 156 156 152 154 158 156 157 155 155 157 155 155 152 156 159 158 156 154 152 152 151 150 150
317 318 320 318 319 317 316 316 317 316 316 314 317 311 299 281 266 254 243 238 231 228 223 225 223 219 217 220 216 211 207 204 207 209 208 217 210 209 210 207 211 211 214 221 225 227 221 209 211 206 206 205 196 186 182 177 173 174 175 168 163 160 157 154 152 153 158 159 155 154 156 155 157 155 153 157 159 159 156 154 154 153 152 153 153
311 311 310 311 312 313 312 315 313 314 316 316 319 317 314 309 291 270 262 246 237 224 217 222 222 221 215 216 214 209 206 205 209 209 209 211 214 210 212 213 211 216 218 218 217 212 225 217 210 205 205 205 203 190 182 182 177 175 176 170 163 159 157 152 155 156 159 160 156 157 159 157 156 155 155 159 160 159 157 154 154 154 153 153 152
306 307 306 306 304 303 307 310 308 313 317 319 319 316 311 305 298 283 262 247 240 229 216 218 222 221 214 215 213 211 207 202 206 210 211 212 215 213 209 211 214 211 213 216 215 212 217 220 211 207 201 202 200 195 186 177 180 177 169 165 160 158 157 157 156 153 160 159 156 155 156 157 155 159 160 156 158 162 159 157 156 153 151 151 151
302 300 303 302 299 296 299 300 303 309 314 317 317 316 313 309 307 300 283 260 245 233 222 216 221 218 213 214 209 211 208 204 203 206 210 210 211 209 208 204 209 211 212 217 218 214 209 211 203 205 204 201 195 191 189 182 181 176 171 163 161 161 159 158 156 155 158 157 157 157 157 157 159 161 157 158 162 162 160 158 156 154 154 152 150
298 299 299 296 295 295 292 292 294 300 307 314 315 318 313 311 311 309 295 275 254 241 222 218 217 215 215 211 208 209 204 205 202 204 207 208 208 207 206 200 203 210 216 215 213 217 212 209 210 210 203 198 196 189 186 184 182 174 165 163 165 162 159 160 158 157 161 161 160 159 156 158 160 161 158 160 161 162 159 159 157 156 155 152 150
297 298 297 295 292 289 289 287 287 294 299 304 309 311 309 307 311 308 307 293 258 240 224 217 209 211 211 209 211 208 206 208 202 203 208 210 205 208 204 200 201 207 212 208 214 209 209 212 208 213 212 198 191 187 182 183 180 174 167 166 165 162 163 158 156 158 160 162 160 159 159 160 162 163 162 162 163 163 161 159 158 157 155 154 149
299 297 295 293 291 287 285 286 286 289 292 297 302 304 308 305 303 306 308 305 289 261 234 224 213 211 207 205 210 205 208 207 204 205 205 205 205 205 202 199 198 201 201 197 197 206 206 211 219 211 205 198 187 190 183 179 175 169 169 166 164 163 160 160 159 159 160 160 160 160 162 161 162 163 160 162 164 164 161 159 159 157 156 152 148
300 297 293 291 287 286 284 283 285 281 285 292 292 296 301 304 301 300 297 301 303 289 252 229 218 209 203 203 205 203 205 205 206 204 201 207 207 202 200 198 196 194 197 191 187 186 194 198 216 228 223 199 185 183 177 173 171 172 169 161 163 165 162 159 159 157 157 159 161 165 163 162 161 159 158 163 164 166 161 159 160 159 155 151 151
298 295 290 288 285 283 283 280 277 279 279 282 287 290 293 293 297 298 302 300 300 300 281 247 226 212 202 202 204 201 203 202 203 200 200 206 207 202 197 192 195 195 190 185 181 179 177 184 190 212 206 210 197 187 175 174 168 161 160 162 164 163 162 164 157 158 158 159 164 167 163 161 163 164 164 164 166 164 161 161 160 159 157 152 148
306 302 296 293 288 284 283 278 274 272 274 277 282 289 288 289 290 296 296 292 288 291 295 281 243 217 202 202 199 200 198 199 195 192 200 199 199 198 189 188 184 187 189 187 180 172 168 167 169 162 200 192 189 180 172 168 164 162 161 163 162 159 160 159 157 158 158 161 165 164 161 163 164 165 163 165 163 160 162 163 162 160 158 155 152
322 316 306 299 293 287 283 280 271 266 270 271 271 281 288 293 291 292 296 296 289 288 296 296 279 264 238 219 210 198 198 194 193 196 190 186 188 180 181 180 176 179 184 174 175 176 169 160 154 183 144 176 171 175 175 167 163 161 162 163 159 155 155 159 161 160 160 162 164 164 162 164 165 166 165 163 162 164 164 164 162 160 159 159 157
316 314 310 305 296 290 284 277 271 265 260 262 263 264 276 282 287 283 287 293 296 296 291 299 296 265 242 233 225 215 203 193 192 194 193 181 171 167 165 164 169 175 178 176 173 175 168 157 160 152 161 157 147 149 147 152 161 161 161 159 154 154 156 161 162 161 163 163 165 167 166 165 165 165 165 164 164 165 165 164 163 161 162 159 156
312 312 310 307 304 296 286 278 271 264 260 259 263 260 266 277 280 285 264 277 285 291 293 307 286 268 236 222 228 239 230 206 192 194 190 185 172 165 171 162 175 175 172 166 176 172 165 160 155 160 169 158 156 148 155 153 156 166 159 158 159 161 162 163 162 163 163 163 168 167 166 164 164 166 166 165 166 167 166 165 162 162 161 158 157
310 308 308 307 303 300 292 284 271 264 265 263 258 261 257 271 276 277 289 260 268 277 281 265 279 277 256 219 215 202 256 249 214 195 191 191 176 175 177 176 173 168 168 160 167 165 167 161 159 160 164 166 165 155 157 156 162 165 166 164 168 164 165 165 163 161 165 167 167 166 165 165 166 168 168 167 167 168 166 164 163 162 159 158 158
314 312 306 301 300 296 293 285 276 265 259 263 263 262 261 261 269 268 269 284 269 277 249 270 269 286 250 226 204 202 205 216 200 209 195 196 184 180 174 177 173 168 173 161 164 165 163 165 164 163 165 167 173 157 152 159 164 164 161 164 170 169 164 166 162 161 167 168 165 165 167 168 169 169 169 168 168 167 166 164 164 162 159 160 159
310 305 301 298 295 291 289 283 278 271 263 260 261 261 263 257 262 270 263 267 277 272 270 248 264 260 283 264 210 216 213 204 190 213 196 199 205 182 181 173 171 171 176 168 168 160 161 164 167 163 163 164 162 160 149 151 159 165 163 163 171 174 166 165 162 161 168 168 166 166 169 171 170 170 169 168 168 168 167 166 166 164 163 163 162
299 298 294 288 290 290 288 285 280 275 266 260 260 264 266 267 255 258 265 252 260 271 273 260 247 271 267 273 282 238 209 197 173 205 249 218 185 194 184 180 173 168 172 163 169 169 160 160 163 163 163 162 160 160 154 152 159 166 163 169 164 173 168 166 165 163 168 169 167 168 172 172 171 170 169 169 169 170 169 168 168 167 166 165 164
299 291 286 288 288 288 285 281 279 275 270 264 262 262 264 262 256 252 257 255 245 258 258 275 280 258 259 275 281 280 261 168 199 102 183 260 197 177 188 189 174 170 171 166 168 171 166 159 163 165 162 157 155 154 155 154 156 163 161 165 162 166 167 168 166 163 168 167 169 172 173 172 172 171 170 170 169 170 169 170 170 169 167 166 167
289 290 303 306 302 297 293 292 291 285 277 268 264 261 259 255 251 253 253 243 240 250 267 261 265 274 264 281 289 292 274 232 200 185 178 175 188 182 186 186 177 177 174 164 167 173 164 164 163 168 159 154 151 147 150 156 157 160 159 161 160 166 164 167 165 164 164 169 170 173 174 174 173 172 171 170 171 170 172 173 172 168 167 168 168
302 311 304 297 298 301 306 313 310 304 292 279 266 259 251 253 253 248 238 237 231 244 252 257 241 261 285 272 282 283 283 245 212 201 188 170 181 172 173 193 186 180 178 169 169 172 169 165 165 166 152 157 156 150 148 152 154 161 163 163 163 165 165 164 164 161 166 175 176 174 175 173 172 171 170 173 173 173 174 170 170 168 169 169 169
295 289 291 294 294 297 299 302 306 309 306 296 282 264 252 250 245 233 230 234 236 243 246 248 242 255 245 266 269 283 289 275 225 200 198 186 173 178 173 174 184 190 175 174 169 171 169 164 163 164 162 164 160 149 149 152 153 159 163 165 163 163 162 161 163 165 171 176 175 176 176 172 171 171 172 174 173 173 171 170 172 172 170 171 169
295 292 288 289 288 294 297 296 300 303 306 306 299 285 267 248 232 226 230 231 235 240 244 242 242 243 244 243 253 253 265 278 263 207 189 189 180 180 176 182 181 173 187 173 171 168 167 167 164 166 165 159 165 157 155 155 153 153 156 166 162 160 161 160 162 168 172 174 174 174 176 174 172 171 175 175 174 171 173 175 175 174 174 173 171
294 292 288 286 292 294 297 299 298 301 302 304 302 297 285 264 235 220 221 225 226 232 236 243 243 250 249 248 252 249 253 257 272 239 202 193 181 177 178 174 174 165 165 163 168 166 169 170 169 165 166 163 168 159 160 156 158 153 155 163 160 161 164 160 161 169 173 173 173 175 174 172 172 171 177 176 174 175 174 173 175 177 176 176 174
302 301 295 296 299 300 298 294 295 296 298 302 301 299 289 275 261 230 218 217 221 225 231 232 233 244 253 245 251 253 252 260 269 262 226 195 184 168 178 172 162 147 167 163 168 173 171 171 169 166 162 163 166 161 158 160 160 158 155 163 161 163 166 163 161 169 173 175 173 174 175 170 170 175 175 177 175 174 174 175 176 178 180 178 176
301 299 298 296 293 292 291 294 295 292 296 298 297 295 288 274 258 244 222 219 219 225 229 228 228 240 242 249 247 251 258 264 272 262 221 193 185 174 161 167 155 147 125 133 145 151 202 177 170 166 164 164 164 162 159 161 163 164 158 162 165 165 166 164 163 171 173 175 172 172 168 172 174 173 176 180 176 176 176 178 179 180 177 174 171
295 296 296 295 292 290 296 298 291 291 297 295 293 295 294 282 267 253 235 218 221 226 229 226 233 233 235 241 252 254 259 266 268 268 223 195 180 168 159 149 140 148 155 144 157 179 162 175 172 167 170 164 166 164 162 163 164 167 162 159 167 166 165 165 166 171 173 172 172 171 171 174 174 175 177 178 180 183 179 178 180 177 173 171 167
289 292 291 292 294 294 293 287 288 297 296 290 291 294 294 286 270 257 249 226 229 232 231 229 230 233 238 245 252 259 261 264 263 267 230 194 181 163 166 165 154 158 160 159 165 168 157 143 303 179 166 166 166 163 160 157 160 165 164 161 162 167 166 166 168 172 172 173 173 171 171 173 175 176 177 180 179 181 177 173 174 170 170 171 170
289 291 290 288 288 288 286 284 289 296 292 285 291 298 300 294 280 265 252 237 228 231 238 240 233 231 239 248 253 262 267 266 268 269 235 196 178 170 170 169 164 154 164 164 173 157 189 177 159 215 179 166 162 164 159 162 163 163 167 164 163 167 169 168 170 172 173 174 175 172 171 172 174 177 174 171 169 169 173 171 175 179 172 164 160
288 289 288 287 285 286 283 281 288 289 283 289 296 300 303 304 297 278 258 249 235 232 241 245 246 241 246 249 250 260 266 271 272 274 240 199 177 172 171 170 165 160 164 167 170 171 162 192 172 155 198 168 161 160 163 162 164 165 166 164 165 168 169 170 172 173 172 174 175 172 172 176 173 172 172 170 167 172 174 172 171 171 165 160 159
289 291 289 287 286 283 286 290 287 280 280 288 295 297 299 300 299 287 270 258 243 236 234 236 241 239 245 252 253 260 267 277 278 274 238 207 177 170 173 164 174 165 163 160 154 192 166 165 171 168 162 167 159 157 161 158 166 168 164 164 167 168 168 170 172 173 171 174 174 174 174 173 172 172 171 168 168 173 169 167 169 168 162 160 159
290 289 286 285 286 285 285 285 283 283 285 291 292 292 294 292 293 291 283 267 255 242 242 238 245 245 246 253 252 255 267 279 279 278 239 206 183 172 167 170 171 170 162 159 161 162 183 166 153 158 158 149 155 158 159 159 169 173 162 163 166 166 166 172 171 175 170 173 172 174 171 173 170 172 177 161 159 167 168 163 164 161 160 159 160
292 288 285 284 284 283 280 280 283 285 293 294 292 289 287 288 287 286 285 277 264 255 247 251 248 247 249 254 256 256 261 272 279 280 254 203 188 179 167 167 177 170 167 163 159 146 130 122 145 154 158 143 154 165 155 157 165 178 168 162 165 170 170 171 172 177 171 170 168 168 173 172 173 172 175 159 154 162 166 163 162 159 158 157 158
291 287 286 282 281 281 280 278 280 285 289 290 289 282 279 283 286 289 288 282 270 259 255 260 259 258 255 250 251 256 256 263 274 278 260 213 187 180 173 166 175 177 177 163 153 148 145 133 145 142 153 159 152 175 158 161 169 174 171 166 166 167 174 163 168 178 171 168 167 163 169 171 174 170 169 160 154 158 166 164 162 159 156 155 153
290 290 286 282 280 280 279 279 280 284 284 281 279 283 285 280 280 285 286 283 273 257 251 253 257 264 266 266 265 260 255 260 270 274 264 222 190 180 174 171 173 172 167 155 144 150 148 151 152 152 158 166 158 169 167 168 168 170 167 169 168 168 167 162 167 169 173 166 167 164 170 170 167 165 168 162 157 160 164 165 161 158 156 153 150
291 289 289 284 281 278 278 278 279 278 278 278 283 285 285 281 276 277 280 281 278 263 249 250 250 257 264 271 272 269 263 261 266 272 263 225 197 182 174 171 166 161 153 150 154 148 151 142 168 159 164 158 156 154 157 158 158 165 171 164 164 166 161 163 165 164 175 171 166 164 172 169 162 164 168 168 161 161 163 163 161 158 156 154 152
290 291 288 284 279 276 275 276 276 274 275 277 278 279 275 275 279 280 281 281 277 268 254 250 248 249 259 263 269 269 265 262 264 268 262 221 204 184 175 166 159 150 147 152 155 148 148 152 157 166 159 152 140 149 153 150 156 137 115 154 176 172 163 168 167 167 170 173 171 169 169 165 163 164 168 172 168 163 164 164 162 158 156 155 154
292 288 286 285 282 278 277 275 274 274 274 274 274 274 275 276 276 275 277 279 276 269 260 251 248 245 253 258 264 264 261 259 262 265 256 223 199 184 172 165 151 144 146 149 149 156 153 156 151 148 162 141 127 148 172 157 156 154 140 119 128 147 148 148 182 178 171 172 173 172 168 163 163 167 170 173 172 167 165 166 163 160 157 156 155
289 290 288 285 282 279 276 275 274 272 272 271 271 271 273 272 269 268 268 271 272 269 257 250 246 246 250 260 268 271 267 262 263 264 257 224 206 182 174 163 153 148 149 150 152 153 152 149 154 155 158 169 155 154 177 167 163 168 161 153 165 181 161 165 169 163 152 150 166 166 160 157 163 167 175 176 175 171 168 169 166 162 159 158 157
290 291 289 287 284 281 278 276 275 274 272 271 270 270 269 269 268 266 264 267 271 275 267 253 246 244 251 257 265 271 272 270 265 267 261 221 209 188 175 159 156 152 149 152 152 150 148 152 155 162 159 155 157 137 145 150 153 169 171 167 173 175 171 182 168 153 153 147 148 146 164 159 167 172 176 181 179 174 170 169 168 164 161 160 159
289 288 288 285 284 281 277 275 275 273 270 267 266 265 265 261 258 258 260 263 265 265 263 256 245 244 247 254 260 266 272 277 279 277 277 237 202 194 174 159 160 154 151 154 153 152 154 154 158 158 158 158 155 146 154 163 172 174 176 171 174 166 146 143 131 167 157 151 145 142 161 163 153 165 164 171 185 174 170 169 173 169 166 163 162
288 286 285 283 279 278 280 277 274 272 268 266 263 262 260 259 257 257 257 259 262 265 263 257 248 240 244 252 260 266 274 278 280 281 277 251 202 189 176 163 161 156 156 156 157 156 153 154 158 159 158 167 164 170 171 181 174 150 159 162 162 158 146 142 109 275 191 148 148 160 174 176 157 166 168 176 184 178 175 172 172 172 170 167 166
287 286 283 281 280 278 277 279 277 273 269 266 266 265 263 260 259 257 255 256 259 260 260 254 252 246 245 248 259 270 276 281 286 286 277 259 210 184 180 168 165 162 159 160 162 160 159 160 163 165 170 173 178 174 177 165 156 162 171 171 163 161 167 165 176 197 243 159 150 146 163 202 164 162 178 178 173 179 174 179 176 177 174 169 166
283 276 277 279 281 279 277 277 276 274 270 267 267 269 269 265 259 257 257 257 256 255 258 258 254 249 250 254 258 266 269 276 289 293 284 256 220 185 177 171 170 167 163 163 164 165 163 159 164 175 171 177 175 174 170 165 168 164 164 164 167 170 175 180 174 177 181 170 148 153 164 188 191 164 172 187 177 177 182 181 179 177 174 170 168
286 281 280 281 279 279 273 272 272 272 270 268 267 267 266 263 260 258 259 260 259 260 258 257 256 253 247 249 258 260 269 279 285 285 282 258 221 187 174 174 172 170 170 169 167 168 168 163 170 174 176 170 170 180 174 172 161 160 164 169 173 176 175 178 176 157 154 177 152 156 169 183 162 167 179 187 181 177 180 182 177 177 175 172 170
284 280 277 278 281 277 272 269 269 271 270 272 271 268 265 263 260 259 261 260 260 262 262 258 254 247 240 239 248 260 267 274 278 285 286 252 221 190 174 174 175 177 175 172 170 165 162 166 168 173 180 169 175 177 173 157 159 167 170 174 172 176 177 181 165 156 162 168 166 151 149 178 186 171 187 179 163 170 178 180 178 178 176 174 172
283 280 280 284 280 278 275 271 269 269 270 272 272 270 268 261 256 255 255 255 253 252 253 255 252 245 238 234 237 248 259 266 268 279 285 259 214 196 175 175 177 178 178 178 174 170 172 173 174 175 172 176 174 165 162 172 172 172 173 171 170 168 137 80 65 100 153 195 166 152 180 177 166 173 184 153 162 160 158 180 180 180 179 175 172
274 270 274 272 274 279 275 272 270 267 268 275 273 270 267 264 260 254 252 251 250 249 250 252 249 243 236 229 232 238 247 258 270 274 275 261 216 192 180 175 177 179 183 183 178 177 177 176 177 173 173 174 169 167 171 173 173 162 139 110 100 109 131 147 148 150 169 196 199 169 128 163 178 177 152 134 139 157 161 165 185 182 180 177 174
279 274 271 273 279 272 270 270 268 268 270 274 275 271 268 262 257 254 254 253 250 250 251 250 248 244 233 227 226 233 240 251 259 267 273 263 216 198 185 177 175 178 187 184 182 180 179 176 175 172 168 163 166 174 173 168 161 148 137 142 158 160 160 156 151 155 182 178 198 174 141 157 174 168 129 150 163 156 166 175 178 185 183 180 179
298 296 288 280 274 267 261 269 266 265 266 270 275 272 266 262 258 257 257 258 256 252 253 249 247 241 232 225 223 226 233 239 251 256 265 259 221 198 189 177 178 182 184 176 177 188 183 178 174 170 165 165 166 168 169 166 156 153 157 167 169 163 169 168 167 178 168 180 186 154 136 172 152 147 123 108 103 186 176 175 174 182 184 184 184
302 302 298 293 283 266 260 259 269 270 266 269 270 270 268 262 258 257 256 253 257 254 253 253 244 238 231 225 221 222 225 236 240 249 256 253 223 197 189 180 181 185 184 172 174 177 182 170 164 160 163 164 162 162 166 164 163 171 176 168 157 162 170 174 159 140 147 205 193 167 159 151 159 175 146 126 174 222 179 175 174 181 182 179 186